RBSP B (38753 NORAD) Tracking and Keplerian Element Data

This shows tracking and keplerian element data for the satellite.

Feedback or suggestion? Click here.




ElementValue
Catalog38753
NameRBSP B
Epoch Orbit5711
Epoch Day201.94449028
Epoch Year2018
RAAN20.2208
Inclination10.1616
Eccentricity0.6844217
Argument of Perigee110.4529
Mean Anonmoly331.4
Mean Motion2.65145659
Decay Rate-1.62E-06
L11 38753U 12046B 18201.94449028 -.00000162 00000-0 52069-3 0 9996
L22 38753 10.1616 20.2208 6844217 110.4529 331.4000 2.65145659 57119

Live tracking and technical data element details for RBSP B (NORAD 38753). RBSP B can be tracked NOW for your location showing map with azimuth and elevation plus other details from your city location.

Track the satellite on the map from your city or location and see movement details for azimuth, elevation, latitude, longitude, range, height, and movement on the map or in text.







IsCatalogInMostPopularTable: catalog: 38753, numindb: 52
Update: records affected: 1



GetName: 38753 RBSP B

Hit Count: updated at: Mon, 23 Jul 2018 07:35:33 GMT